User: anonymous   Login
Location: Newark
(35.8833°N, 14.5000°E)
Time: 02:21:14
(UTC+00:00)
Language:

ZACube-1 - Orbit

View from above orbital plane
View from above orbital plane
View from above satellite
View from above satellite

Ground track
Ground track

The orbit data is extracted from the following two-line orbital elements,

1 39417U 13066B   19146.19475126  .00000147  00000-0  24746-4 0  9995
2 39417  97.5634 161.0162 0060509 110.5344 250.2377 14.81104173297560
Epoch (UTC): 26 May 2019 04:40:26
Eccentricity: 0.0060509
inclination: 97.5634°
perigee height: 583 km
apogee height: 668 km
right ascension of ascending node: 161.0162°
argument of perigee: 110.5344°
revolutions per day: 14.81104173
mean anomaly at epoch: 250.2377°
orbit number at epoch: 29756

The dashed part of the orbit path shows where the satellite is in the earth's shadow,  

DLR